AUA22 LSGG-LOWW

Flight info

Callsign AUA22
Flight time N/A
Altitude 34000
Route SOSAL N871 KORED DCT BERSU DCT DITON N871 DEGES DCT GAMSA/N0424F330 DCT TULSI DCT INPUL DCT NEMAL NEMAL2W
Aircraft MD82/M-SDFGIRWY/S

Departure

Time 2026-05-01 08:27
Airport Geneva International Airport (LSGG)

Arrival

Time N/A
Airport Vienna International Airport (LOWW)
Time Latitude Longitude Altitude Speed Heading
2026-05-01 08:11 46.23039 6.10560 1393 ft 0 kts 136°
2026-05-01 08:17 46.23048 6.10547 1401 ft 4 kts 135°
2026-05-01 08:17 46.23064 6.10528 1404 ft 4 kts 161°
2026-05-01 08:17 46.23079 6.10531 1399 ft 4 kts 221°
2026-05-01 08:17 46.23098 6.10559 1401 ft 3 kts 226°
2026-05-01 08:18 46.23101 6.10563 1400 ft 0 kts 225°
2026-05-01 08:22 46.23096 6.10556 1401 ft 2 kts 225°
2026-05-01 08:22 46.23063 6.10508 1398 ft 12 kts 225°
2026-05-01 08:22 46.22987 6.10398 1399 ft 12 kts 225°
2026-05-01 08:22 46.22951 6.10324 1403 ft 6 kts 263°
2026-05-01 08:23 46.22973 6.10276 1404 ft 11 kts 313°
2026-05-01 08:23 46.23043 6.10176 1399 ft 11 kts 314°
2026-05-01 08:23 46.23052 6.10128 1404 ft 4 kts 251°
2026-05-01 08:23 46.23019 6.10075 1399 ft 13 kts 225°
2026-05-01 08:24 46.22928 6.09941 1403 ft 25 kts 225°
2026-05-01 08:24 46.22803 6.09757 1396 ft 25 kts 225°
2026-05-01 08:24 46.22689 6.09589 1400 ft 24 kts 225°
2026-05-01 08:24 46.22589 6.09440 1401 ft 15 kts 231°
2026-05-01 08:25 46.22558 6.09358 1408 ft 0 kts 251°
2026-05-01 08:25 46.22558 6.09357 1408 ft 1 kts 251°
2026-05-01 08:25 46.22554 6.09333 1405 ft 4 kts 258°
2026-05-01 08:26 46.22551 6.09277 1414 ft 7 kts 269°
2026-05-01 08:26 46.22566 6.09186 1418 ft 8 kts 306°
2026-05-01 08:26 46.22567 6.09184 1418 ft 0 kts 306°
2026-05-01 08:26 46.22597 6.09158 1420 ft 10 kts 355°
2026-05-01 08:27 46.22678 6.09239 1420 ft 37 kts 46°
2026-05-01 08:27 46.23036 6.09764 1414 ft 109 kts 45°
2026-05-01 08:27 46.23721 6.10770 1443 ft 166 kts 45°
2026-05-01 08:27 46.24565 6.11915 2260 ft 168 kts 41°
2026-05-01 08:28 46.25441 6.13110 3059 ft 181 kts 45°
2026-05-01 08:28 46.26384 6.14486 3609 ft 204 kts 46°
2026-05-01 08:28 46.27422 6.16045 4165 ft 226 kts 46°
2026-05-01 08:28 46.28555 6.17753 4721 ft 245 kts 46°
2026-05-01 08:29 46.29760 6.19577 5275 ft 262 kts 46°
2026-05-01 08:29 46.31041 6.21505 6034 ft 268 kts 46°
2026-05-01 08:29 46.32346 6.23455 6884 ft 271 kts 46°
2026-05-01 08:29 46.33674 6.25434 7645 ft 276 kts 46°
2026-05-01 08:30 46.35026 6.27442 8438 ft 279 kts 46°
2026-05-01 08:30 46.36386 6.29481 9211 ft 283 kts 51°
2026-05-01 08:30 46.37337 6.31973 9926 ft 286 kts 72°
2026-05-01 08:30 46.37906 6.34759 10542 ft 294 kts 75°
2026-05-01 08:31 46.38458 6.37689 10707 ft 316 kts 76°
2026-05-01 08:31 46.39046 6.40856 10895 ft 335 kts 76°
2026-05-01 08:31 46.39656 6.44170 11323 ft 343 kts 76°
2026-05-01 08:31 46.40278 6.47516 12009 ft 344 kts 75°
2026-05-01 08:32 46.40917 6.50862 12636 ft 346 kts 75°
2026-05-01 08:32 46.41577 6.54233 13226 ft 349 kts 75°
2026-05-01 08:32 46.42254 6.57624 13813 ft 352 kts 74°
2026-05-01 08:32 46.42942 6.61040 14349 ft 354 kts 74°
2026-05-01 08:33 46.43641 6.64492 14861 ft 356 kts 74°
2026-05-01 08:33 46.44424 6.67907 15369 ft 359 kts 65°
2026-05-01 08:33 46.45795 6.70944 15871 ft 362 kts 53°
2026-05-01 08:33 46.47391 6.73775 16398 ft 363 kts 51°
2026-05-01 08:34 46.49018 6.76579 16926 ft 363 kts 51°
2026-05-01 08:34 46.50651 6.79382 17469 ft 364 kts 51°
2026-05-01 08:34 46.52286 6.82191 18014 ft 363 kts 51°
2026-05-01 08:34 46.53902 6.84997 18578 ft 362 kts 52°
2026-05-01 08:35 46.55501 6.87817 19081 ft 361 kts 52°
2026-05-01 08:35 46.57082 6.90648 19588 ft 359 kts 52°
2026-05-01 08:35 46.58647 6.93467 20088 ft 357 kts 52°
2026-05-01 08:35 46.60189 6.96256 20617 ft 358 kts 52°
2026-05-01 08:36 46.61752 6.99087 21129 ft 358 kts 52°
2026-05-01 08:36 46.63312 7.01913 21676 ft 358 kts 52°
2026-05-01 08:36 46.64875 7.04742 22213 ft 358 kts 52°
2026-05-01 08:36 46.66434 7.07563 22776 ft 357 kts 52°
2026-05-01 08:37 46.67989 7.10375 23325 ft 356 kts 52°
2026-05-01 08:37 46.69536 7.13173 23896 ft 354 kts 52°
2026-05-01 08:37 46.71074 7.15952 24385 ft 351 kts 52°
2026-05-01 08:37 46.72598 7.18714 24882 ft 348 kts 52°
2026-05-01 08:38 46.74108 7.21452 25377 ft 345 kts 52°
2026-05-01 08:38 46.75606 7.24164 25872 ft 342 kts 52°
2026-05-01 08:38 46.77090 7.26853 26387 ft 339 kts 52°
2026-05-01 08:38 46.78559 7.29526 26922 ft 335 kts 52°
2026-05-01 08:39 46.80003 7.32168 27452 ft 330 kts 52°
2026-05-01 08:39 46.81421 7.34767 28023 ft 325 kts 51°
2026-05-01 08:39 46.82816 7.37335 28580 ft 319 kts 51°
2026-05-01 08:39 46.84182 7.39844 29153 ft 312 kts 51°
2026-05-01 08:40 46.86817 7.44675 30337 ft 294 kts 51°
2026-05-01 08:40 46.88068 7.46973 30848 ft 284 kts 51°
2026-05-01 08:40 46.89275 7.49187 31369 ft 272 kts 51°
2026-05-01 08:41 46.90422 7.51297 31891 ft 258 kts 51°
2026-05-01 08:41 46.91503 7.53288 32424 ft 241 kts 51°
2026-05-01 08:41 46.92514 7.55147 32845 ft 229 kts 51°
2026-05-01 08:41 46.93534 7.57021 32541 ft 246 kts 51°
2026-05-01 08:42 46.94612 7.58997 32515 ft 247 kts 51°
2026-05-01 08:42 46.95639 7.60894 33029 ft 230 kts 51°
2026-05-01 08:42 46.96628 7.62721 33126 ft 231 kts 51°
2026-05-01 08:42 46.97663 7.64592 32961 ft 240 kts 50°
2026-05-01 08:43 46.98746 7.66476 33010 ft 240 kts 49°
2026-05-01 08:43 46.99838 7.68270 33273 ft 231 kts 47°
2026-05-01 08:43 47.00951 7.69971 33301 ft 233 kts 45°
2026-05-01 08:43 47.02133 7.71623 33160 ft 242 kts 42°
2026-05-01 08:44 47.03415 7.73226 33252 ft 240 kts 39°
2026-05-01 08:44 47.04700 7.74746 33362 ft 239 kts 48°
2026-05-01 08:44 47.05681 7.76770 33142 ft 249 kts 64°
2026-05-01 08:44 47.06408 7.79042 33394 ft 244 kts 63°
2026-05-01 08:45 47.07214 7.81288 33433 ft 256 kts 59°
2026-05-01 08:45 47.08167 7.83579 33382 ft 271 kts 57°
2026-05-01 08:45 47.09234 7.85960 33357 ft 286 kts 55°
2026-05-01 08:45 47.10360 7.88351 33308 ft 279 kts 54°
2026-05-01 08:46 47.11464 7.90616 32992 ft 271 kts 53°
2026-05-01 08:46 47.12208 7.92100 32506 ft 274 kts 53°
2026-05-01 08:46 47.13380 7.94381 31695 ft 284 kts 52°
2026-05-01 08:46 47.14590 7.96669 31207 ft 281 kts 51°